一网星座-0027星 (ONEWEB-0027 )

导读

ONEWEB-0027是英国OneWeb星座项目的低轨通信卫星,于2020年3月21日发射入轨,是OneWeb一期组网的卫星之一。它运行在约1200公里高度的近地轨道,单星重约147.5公斤,设计寿命5年,配备Ku/Ka波段天线,为全球互联网覆盖提供支撑,支持高速低延迟通信服务,是OneWeb构建全球卫星互联网的重要组成单元。

基本信息
目录编号:
45432
目录名称:
ONEWEB-0027
国际标识:
2020-020J
轨道中心:
EARTH
卫星名称:
一网星座-0027星
卫星全名:
一网星座-0027星 (ONEWEB-0027 )
卫星状态:
在轨 (已飞行2319 天)
发射日期:
2020-03-21 UTC
国别 :
英国 (GB)
星等 :
--
轨道信息
数据来源 国际轨道数据 AOE轨道数据
星历时间 2026-07-27T07:24:55+0800
22小时前
查看轨道信息
2026-07-25T15:00:00+0800
2天前
查看轨道信息
半长轴 7571.85km 7571.845km
偏心率 0.0002116 0.0002114
轨道倾角 87.916° 87.917°
近地点辐角 89.609° 87.790°
升交点赤经 357.951° 358.286°
平近点角 270.528° 208.925°
近地点 1192.11km 1192.107km
远地点 1195.316km 1195.309km
周期 109.286分钟 109.285分钟
每日圈数 13.176493 13.176504
详细信息
平衡模式:
三轴稳定
覆盖范围:
全球
运营商:
一网卫星公司
运营商所在国:
英国
制造商(研发单位):
一网卫星公司
制造商所在国:
英国
使用方式:
暂无
卫星简介
OneWeb卫星网络由648颗重约125公斤的微型卫星组成,运行在1200公里的轨道上。 每颗卫星都能够提供至少每秒8千兆位的吞吐量,以使用其高吞吐量的Ku频段有效载荷为家庭和移动平台提供互联网接入。该卫星仍在工作。
2D轨道图
3D轨道图
轨道高度分析图
轨道倾角分析图
轨道综合分析图
查看轨道综合分析图